SCP
0 0 0 0 0 0 0 0 0 0 0 0 0 0 0 0 0 0 0 0 0 0 0 0 1 1 2 2 2 2 3 3 2 2 2 2 2 2 2 1 1 1 1
0 0 0 0 0 0 0 0 0 0 0 0 0 0 0 0 0 0 0 0 0 0 0 0 1 1 1 2 2 2 2 2 2 2 2 2 2 2 2 2 1 1 1
0 0 0 0 0 0 0 0 0 0 0 0 0 0 0 0 0 0 0 0 0 0 0 0 0 1 1 1 2 2 2 2 2 2 2 2 2 2 2 2 2 1 1
0 0 0 0 0 0 0 0 0 0 0 0 0 0 0 0 0 0 0 0 0 0 0 0 0 1 1 1 1 2 2 2 2 2 2 1 1 1 2 2 2 1 1
0 0 0 0 0 0 0 0 0 0 0 0 0 0 0 0 0 0 0 0 0 0 0 0 0 1 1 1 1 1 1 1 1 1 1 1 1 1 1 1 1 1 1
0 0 0 0 0 0 0 0 0 0 0 0 0 0 0 0 0 0 0 0 0 0 0 0 0 0 1 1 1 1 2 2 1 1 1 1 1 1 1 1 1 1 1
0 0 0 0 0 0 0 0 0 0 0 0 0 0 0 0 0 0 0 0 0 0 0 0 0 0 1 1 1 2 2 2 1 1 1 1 1 1 1 1 1 1 1
0 0 0 0 0 0 0 0 0 0 0 0 0 0 0 0 0 0 0 0 0 0 0 0 0 0 0 1 1 1 2 1 1 1 1 1 1 1 1 1 1 1 1
0 0 0 0 0 0 0 0 0 0 0 0 0 0 0 0 0 0 0 0 0 0 0 0 0 0 0 0 0 0 1 1 1 1 1 1 1 1 1 1 1 1 1
0 0 0 0 0 0 0 0 0 0 0 0 0 0 0 0 0 0 0 0 0 0 0 0 0 0 0 0 0 0 0 0 0 0 0 1 1 2 2 2 1 1 0
0 0 0 0 0 0 0 0 0 0 0 0 0 0 0 0 0 0 0 0 0 0 0 0 0 0 0 0 0 0 0 0 0 0 0 1 1 2 2 1 1 0 0
0 0 0 0 0 0 0 0 0 0 0 0 0 0 0 0 0 0 0 0 0 0 0 0 0 0 0 0 0 0 0 0 0 0 0 1 1 1 1 0 0 0 0
0 0 0 0 0 0 0 0 0 0 0 0 0 0 0 0 0 0 0 0 0 0 0 0 0 0 -0 0 0 0 0 0 0 0 0 0 1 1 0 0 0 0 0
0 0 0 0 0 0 0 0 0 0 0 0 0 0 0 0 0 0 0 0 0 0 0 0 0 0 0 0 0 0 0 0 0 0 0 0 0 0 0 0 0 0 0
0 0 0 0 0 0 0 0 0 0 0 0 0 0 0 0 0 0 0 0 0 0 0 0 0 0 0 0 0 0 0 0 0 0 0 0 0 0 0 0 0 0 0
0 0 0 0 0 0 0 0 0 0 0 0 0 0 0 0 0 0 0 0 0 0 0 0 0 0 0 0 0 0 0 0 0 0 0 0 0 0 0 0 0 0 0
0 0 0 0 0 0 0 0 0 0 0 0 0 0 0 0 0 0 0 0 0 0 0 0 0 0 0 0 0 0 0 0 0 0 0 0 0 0 0 0 0 0 0
0 0 0 0 0 0 0 0 0 0 0 0 0 0 0 0 0 0 0 0 0 0 0 0 0 0 0 0 0 0 0 0 0 0 0 0 0 0 0 0 0 0 0
0 0 0 0 0 0 0 0 0 0 0 0 0 0 0 0 0 0 0 0 0 0 0 0 0 0 0 0 0 0 0 0 0 0 0 0 0 0 0 0 0 0 0
0 0 0 0 0 0 0 0 0 0 0 0 0 0 0 0 0 0 0 0 0 0 0 0 0 0 0 0 0 0 0 0 0 0 0 0 0 0 0 0 0 0 0
0 0 0 0 0 0 0 0 0 0 0 0 0 0 0 0 0 0 0 0 0 0 0 0 0 0 0 0 0 0 0 0 0 0 0 0 0 0 0 0 0 0 0
0 0 0 0 0 0 0 0 0 0 0 0 0 0 0 0 0 0 -0 -0 0 0 0 0 0 0 0 0 0 0 0 0 0 0 0 0 0 0 0 0 0 0 0
0 0 0 0 0 0 0 0 0 0 0 0 0 0 0 0 -0 -0 -0 -0 0 0 0 0 0 0 0 0 0 0 0 0 0 0 0 0 0 0 0 0 0 0 0
0 0 0 0 0 0 0 0 0 0 0 0 0 0 0 -0 -0 -0 0 0 0 0 0 0 0 0 0 0 0 0 0 0 0 0 0 0 0 0 0 0 0 0 0
0 0 0 0 0 0 0 0 0 0 0 0 0 0 0 0 0 0 0 0 0 0 0 0 0 0 0 0 0 0 0 0 0 0 0 0 0 0 0 0 0 0 0
0 0 0 0 0 0 0 0 0 0 0 0 0 0 0 0 0 0 0 0 0 0 0 0 0 0 0 0 0 0 0 0 0 0 0 0 0 0 0 0 0 0 0
Wind_Speed
1 2 1 1 1 1 2 3 3 4 4 5 6 6 6 6 6 5 5 13 14 15 17 19 20 19 19 19 21 22 21 19 19 19 19 21 22 22 23 23 23 22 21
2 2 1 1 0 1 1 2 3 4 4 4 5 7 6 6 6 7 6 8 13 15 16 18 18 17 18 18 19 19 18 19 20 21 21 20 22 23 23 23 24 24 23
3 3 2 2 2 2 3 3 4 4 4 5 6 7 6 7 7 9 8 8 9 12 17 18 19 18 18 18 20 19 20 19 20 21 22 21 21 22 23 24 25 25 24
4 3 2 3 3 3 3 3 3 4 4 4 5 6 5 6 8 9 8 8 8 8 11 17 20 19 19 18 18 18 18 19 21 22 22 22 21 22 23 24 25 26 25
4 4 3 3 3 3 3 3 3 2 4 5 6 7 6 5 7 8 9 11 10 9 8 12 17 18 18 18 17 17 16 16 18 20 21 20 19 19 21 23 25 25 25
7 5 4 4 2 2 4 3 3 3 3 4 6 7 6 6 6 6 9 9 9 10 9 10 10 11 16 16 14 12 11 11 14 16 17 17 18 18 19 21 23 23 24
6 4 4 3 3 3 4 4 3 3 4 2 3 7 7 7 6 7 6 7 10 11 10 10 7 5 5 7 7 5 2 5 10 11 12 13 15 15 15 17 19 20 19
3 2 4 4 4 4 5 5 4 3 3 2 2 6 7 10 6 5 6 7 8 9 8 7 6 6 7 6 7 9 6 8 11 12 10 11 13 14 14 13 14 14 13
5 2 1 3 5 5 6 7 6 6 7 4 4 4 6 11 12 9 7 6 6 5 5 6 5 6 5 5 7 10 11 11 12 15 17 15 12 12 10 8 7 10 14
7 7 5 3 2 3 6 6 6 5 5 5 2 4 7 8 8 15 12 7 5 4 3 4 3 3 3 3 4 8 13 14 12 13 17 18 12 8 8 15 20 22 22
8 8 7 7 5 5 7 5 6 5 4 5 4 4 4 4 5 7 11 11 8 6 2 3 3 3 4 4 4 7 12 12 10 7 10 15 11 12 21 24 23 23 23
5 5 6 7 7 6 6 6 6 5 4 4 4 4 4 4 3 4 8 12 11 8 2 2 2 2 3 4 6 11 12 8 5 2 5 7 13 22 24 22 23 22 20
4 7 7 6 6 6 6 6 5 5 5 4 5 5 6 8 5 5 9 11 9 4 2 2 1 1 2 2 4 10 11 9 7 8 11 16 19 22 23 22 19 18 17
5 6 7 6 6 7 8 8 7 6 6 6 8 8 9 9 6 6 8 8 10 6 3 3 1 1 2 3 6 10 8 9 13 16 18 18 20 22 22 21 19 20 22
5 6 6 7 7 8 9 8 7 7 7 7 7 8 7 6 5 6 7 7 8 7 5 4 3 1 0 1 5 6 6 12 14 20 23 24 24 24 25 25 25 24 24
4 7 10 10 10 9 8 7 8 10 11 9 7 9 9 8 8 8 8 7 7 7 8 4 4 3 2 2 6 6 6 13 13 21 25 23 24 23 22 24 24 24 24
5 9 10 10 9 9 10 9 10 10 11 10 11 11 13 12 9 9 9 8 8 8 9 6 3 4 3 5 5 7 6 7 8 18 25 26 24 23 23 24 24 23 21
7 8 9 9 11 12 12 11 12 11 11 12 13 13 13 11 12 11 10 10 10 9 9 7 4 4 3 5 8 8 7 7 9 19 22 26 25 25 23 23 22 22 21
9 10 9 10 12 12 12 11 11 10 11 12 13 14 14 14 14 12 12 11 9 9 9 6 6 4 4 6 9 8 9 8 8 14 16 20 23 23 22 21 21 22 20
10 10 10 10 10 10 10 10 10 11 12 12 13 14 15 15 14 13 13 13 11 10 8 7 9 9 9 7 8 9 10 8 7 7 10 12 17 20 20 20 19 20 18
10 9 9 9 9 8 9 11 11 10 11 11 12 12 12 15 19 17 12 10 10 9 7 8 10 8 8 9 8 8 11 9 7 5 6 7 8 9 11 14 15 18 18
7 7 7 8 8 7 12 15 11 7 9 10 10 10 10 12 13 15 17 16 12 10 7 9 9 12 12 11 11 11 12 10 6 2 5 7 7 9 8 9 15 18 18
5 5 6 7 9 10 15 16 14 8 8 9 10 10 9 8 10 9 12 14 12 11 16 14 14 14 14 13 14 12 9 9 8 5 6 9 8 10 8 9 15 17 17
3 4 4 5 7 10 14 16 17 9 8 10 12 13 11 9 8 5 3 2 2 6 11 10 13 13 14 15 13 14 13 14 12 6 5 10 10 9 7 7 11 13 12
3 5 6 7 7 9 14 16 14 10 9 11 12 13 13 10 13 12 8 7 7 8 13 17 18 20 22 23 20 16 14 14 11 6 5 8 10 8 6 5 7 12 12
3 4 5 6 8 8 10 12 12 7 8 8 10 12 17 16 17 16 11 10 13 13 18 19 22 23 20 21 20 15 14 12 11 8 4 6 8 5 5 4 4 5 10
Wind_Direction
122 91 130 129 95 20 7 341 330 332 335 338 332 325 319 310 305 300 297 302 303 303 301 299 293 278 260 241 238 239 230 225 226 228 227 225 223 225 225 225 224 225 224
141 107 99 107 351 339 334 329 324 317 309 316 316 318 317 310 308 300 292 297 297 298 297 297 296 292 280 258 240 237 231 229 231 229 230 231 228 224 224 224 224 225 224
149 134 140 199 239 266 306 330 318 315 311 317 311 308 304 298 299 301 301 306 303 300 297 294 290 288 284 272 257 239 233 235 235 233 231 235 234 228 225 224 224 224 224
175 169 164 215 241 266 300 303 294 295 292 300 300 296 290 291 293 296 300 303 300 296 297 294 289 285 284 282 267 248 239 239 236 235 234 236 238 234 228 225 224 224 224
213 202 214 230 234 261 289 291 274 264 290 304 308 308 305 298 294 303 303 303 301 299 300 298 292 288 284 280 269 259 259 255 242 236 238 238 240 239 235 232 230 228 224
225 215 225 241 271 302 293 285 276 271 271 299 315 312 305 300 298 301 299 306 307 305 306 306 307 300 291 284 274 259 265 273 254 243 241 240 238 235 235 236 236 232 225
245 238 245 254 245 242 262 280 274 278 286 299 319 306 297 295 306 303 307 307 307 307 304 307 317 318 318 332 349 306 261 312 282 263 260 257 250 243 241 241 236 232 226
2 357 323 314 295 284 279 268 258 268 264 243 258 308 305 302 299 306 301 294 295 296 310 336 358 2 358 345 342 332 337 332 315 302 284 266 253 239 242 242 235 227 215
2 7 293 272 294 300 291 289 275 262 271 261 218 234 291 298 315 308 305 289 291 307 338 350 357 359 359 346 337 333 331 318 302 296 289 280 268 253 242 222 171 149 139
322 306 289 265 241 263 275 271 268 260 255 269 269 227 241 272 292 304 302 297 298 304 330 331 334 326 337 324 327 324 315 302 293 289 278 268 256 242 172 141 136 137 137
307 309 322 329 307 282 272 273 283 271 250 240 235 233 242 247 244 274 296 305 304 290 271 309 327 337 343 331 317 316 316 302 287 281 278 254 224 152 136 136 140 140 136
282 307 313 306 305 301 293 290 286 284 278 269 259 244 239 235 231 262 291 294 294 288 259 283 315 336 344 338 336 339 330 319 310 52 92 141 139 131 131 134 134 130 125
316 315 313 315 324 326 321 320 309 296 277 273 273 273 273 272 262 256 274 277 273 263 240 248 271 313 333 332 354 351 346 19 28 67 88 107 117 119 118 115 119 123 131
294 297 311 320 326 323 315 308 290 273 272 279 277 275 275 279 273 251 248 260 273 265 225 244 265 6 352 345 10 350 337 42 74 77 81 90 97 102 105 107 106 105 100
302 315 311 306 309 306 298 287 283 284 282 271 269 266 266 271 263 251 241 242 265 277 276 232 203 156 172 62 40 356 357 47 72 89 88 87 87 86 88 90 89 90 91
315 315 317 315 311 304 292 291 290 291 290 281 276 278 273 270 273 268 257 246 234 253 264 229 194 162 173 88 63 42 25 52 63 85 87 85 85 87 89 93 95 92 90
311 309 311 308 296 278 280 286 287 287 282 281 279 277 271 269 266 264 260 251 238 231 244 235 172 146 135 111 80 59 31 47 62 79 87 85 82 82 81 84 86 85 84
299 301 303 295 291 295 296 293 289 284 283 283 284 282 278 277 271 264 258 250 241 232 231 224 153 137 120 123 106 89 70 55 65 72 77 82 83 80 79 79 79 77 74
305 305 302 302 300 299 297 295 293 293 291 286 283 278 274 267 260 256 253 250 242 233 221 203 143 132 131 127 112 102 86 75 67 73 72 76 80 81 81 81 79 76 72
306 306 305 301 302 304 304 308 310 301 293 287 281 274 266 258 253 253 249 240 238 234 220 182 149 149 143 137 127 123 105 85 68 57 65 72 79 82 81 81 82 84 81
310 312 312 317 318 317 320 320 306 299 297 296 292 287 280 272 263 263 267 247 234 229 213 160 147 146 146 146 140 132 116 106 74 45 60 54 60 61 64 72 77 87 87
316 321 330 329 328 325 322 320 322 315 311 309 306 307 303 296 284 278 279 275 258 216 167 154 153 152 157 148 140 142 130 128 103 34 84 78 74 72 61 72 85 87 87
330 339 342 343 341 338 341 339 340 331 318 319 325 329 322 309 297 276 271 268 260 212 170 157 156 159 153 147 137 131 126 111 106 120 108 91 82 77 65 72 80 79 80
334 321 316 323 329 329 333 343 341 330 328 339 346 351 344 329 320 295 285 314 249 174 153 145 142 139 133 132 128 121 114 107 105 102 96 99 96 84 65 55 65 62 65
308 301 298 307 313 315 330 340 344 340 345 351 352 354 357 1 9 32 39 50 63 86 90 99 108 116 122 124 124 120 123 124 118 111 98 107 109 94 61 26 34 55 65
302 306 316 328 331 332 330 331 339 337 342 349 354 354 6 18 24 31 43 58 71 84 96 94 95 99 107 113 119 124 133 130 125 121 136 117 126 117 80 18 23 52 68